Weather History for KIRK - July, 2013

Change the Weather History Date:

Sunday, July 28, 2013

  Actual Average Record
Temperature  
Mean Temperature 63 °F 76 °F  
Max Temperature 79 °F 86 °F - ()
Min Temperature 46 °F 65 °F - ()
Degree Days  
Heating Degree Days 2 0  
Month to date heating degree days 5 0  
Since 1 June heating degree days 41 16  
Since 1 July heating degree days 5 0  
Cooling Degree Days 0 11  
Month to date cooling degree days 245 283  
Year to date cooling degree days 520 537  
Since 1 June cooling degree days 452 475  
Growing Degree Days 12 (Base 50)    
Moisture  
Dew Point 49 °F    
Average Humidity 68    
Maximum Humidity 100    
Minimum Humidity 35    
Precipitation  
Precipitation 0.00 in 0.16 in - ()
Month to date precipitation 0.77 4.17  
Year to date precipitation 28.68 23.10  
Sea Level Pressure  
Sea Level Pressure 30.05 in    
Wind  
Wind Speed 5 mph (West)    
Max Wind Speed 14 mph    
Max Gust Speed 21 mph    
Visibility 10 miles    
Events      
T = Trace of Precipitation, MM = Missing Value Source: NWS Daily Summary

Daily Weather History Graph

Daily Weather History Graph

Search for Another Location

Airport or City:

Trip Planner

Search our weather history database for the weather conditions in past years. The results will help you decide how hot, cold, wet, or windy it might be!

Date:

Astronomy

Jul. 28, 2013 Rise Set
Actual Time 6:04 AM CDT 8:27 PM CDT
Civil Twilight 5:34 AM CDT 8:58 PM CDT
Nautical Twilight 4:56 AM CDT 9:36 PM CDT
Astronomical Twilight 4:14 AM CDT 10:18 PM CDT
Moon 11:49 PM CDT (7/28) 12:48 PM CDT (7/28)
Length of Visible Light 15h 24m
Length of Day
14h 22m
Waning Gibbous, 60% of the Moon is Illuminated
Jul 28
Waning Gibbous
Jul 29
Last Quarter
Aug 6
New
Aug 14
First Quarter
Aug 20
Full

Hourly Weather History & Observations

Time (CDT) Temp. Windchill Dew Point Humidity Pressure Visibility Wind Dir Wind Speed Gust Speed Precip Events Conditions
12:55 AM 48.0 °F - 46.9 °F 96% 30.03 in 10.0 mi Calm Calm - N/A   Clear
1:55 AM 46.9 °F - 46.0 °F 97% 30.04 in 10.0 mi SW 4.6 mph - N/A   Clear
2:55 AM 46.0 °F 44.8 °F 44.1 °F 93% 30.04 in 10.0 mi WSW 3.5 mph - N/A   Clear
3:55 AM 48.9 °F - 46.0 °F 90% 30.04 in 10.0 mi SW 3.5 mph - N/A   Clear
4:55 AM 46.9 °F - 46.0 °F 97% 30.03 in 10.0 mi WSW 3.5 mph - N/A   Clear
5:55 AM 46.0 °F 44.8 °F 45.0 °F 96% 30.05 in 10.0 mi West 3.5 mph - N/A   Clear
6:55 AM 51.1 °F - 48.0 °F 89% 30.06 in 10.0 mi West 4.6 mph - N/A   Clear
7:55 AM 57.0 °F - 51.1 °F 81% 30.06 in 10.0 mi WSW 5.8 mph - N/A   Clear
8:55 AM 64.0 °F - 52.0 °F 65% 30.07 in 10.0 mi West 8.1 mph - N/A   Clear
9:55 AM 68.0 °F - 50.0 °F 52% 30.06 in 10.0 mi West 10.4 mph - N/A   Clear
10:55 AM 71.1 °F - 48.0 °F 44% 30.06 in 10.0 mi West 9.2 mph 17.3 mph N/A   Clear
11:55 AM 73.0 °F - 48.9 °F 42% 30.06 in 10.0 mi NW 8.1 mph - N/A   Clear
12:55 PM 75.9 °F - 46.9 °F 36% 30.05 in 10.0 mi West 10.4 mph - N/A   Clear
1:55 PM 75.9 °F - 48.0 °F 37% 30.04 in 10.0 mi NW 8.1 mph 19.6 mph N/A   Clear
2:55 PM 77.0 °F - 48.9 °F 37% 30.04 in 10.0 mi NW 10.4 mph - N/A   Clear
3:55 PM 78.1 °F - 48.9 °F 36% 30.03 in 10.0 mi NW 4.6 mph - N/A   Clear
4:55 PM 78.1 °F - 48.9 °F 36% 30.04 in 10.0 mi WNW 5.8 mph - N/A   Clear
5:55 PM 77.0 °F - 48.0 °F 36% 30.04 in 10.0 mi NNW 6.9 mph - N/A   Clear
6:55 PM 75.9 °F - 48.9 °F 38% 30.04 in 10.0 mi NNW 3.5 mph - N/A   Clear
7:55 PM 72.0 °F - 51.1 °F 48% 30.05 in 10.0 mi Calm Calm - N/A   Clear
8:55 PM 57.9 °F - 53.1 °F 84% 30.06 in 10.0 mi Calm Calm - N/A   Clear
9:55 PM 55.9 °F - 52.0 °F 87% 30.07 in 10.0 mi Calm Calm - N/A   Clear
10:55 PM 54.0 °F - 52.0 °F 93% 30.09 in 10.0 mi Calm Calm - N/A   Clear
11:55 PM 53.1 °F - 51.1 °F 93% 30.09 in 10.0 mi Calm Calm - N/A   Clear